User: anonymous   Login
Location: Unspecified
(0.0000°N, 0.0000°E)
Time: 13:00:16
(UTC+00:00)
Language:

OPTUS D2 - Orbit

View from above orbital plane
View from above orbital plane
View from above satellite
View from above satellite

Ground track
Ground track

The orbit data is extracted from the following two-line orbital elements,

1 32252U 07044A   17145.48660392 -.00000191 +00000-0 +00000-0 0  9997
2 32252 000.0185 323.1090 0003247 099.3801 147.9512 01.00269913035259
Epoch (UTC): 25 May 2017 11:40:42
Eccentricity: 0.0003247
inclination: 0.0185°
perigee height: 35773 km
apogee height: 35800 km
right ascension of ascending node: 323.1090°
argument of perigee: 99.3801°
revolutions per day: 1.00269913
mean anomaly at epoch: 147.9512°
orbit number at epoch: 3525

The dashed part of the orbit path shows where the satellite is in the earth's shadow,  

DLR